Погода в Среднем Майдане

Украина / Ивано-Франковская область     48°38′14″N   24°45′27″E
темп.,
°C
ветер,
м/с
пор.,
м/с
влажн.,
%
обл.,
%
осадки,
мм/ч
давл.,
гПа
погр.,
м
28 ноября, вс
вс2823:00+4ююв33873 0.0 100239
02:00+4юв2286100 0.0 100130
05:00+4ююв2283100 0.0 100032
08:00+4в1183100 0.0 99910
11:00+6ссз2580100 0.0 999185
14:00+7вюв1184100 0.1 99949
17:00+6юв22875 0.0 99822
20:00+5юв3487100 0.0 99756
29 ноября, пн
пн2923:00+4юв3488100 0.0 99567
02:00+4ю2285100 0.0 99319
05:00+5ю2280100 0.0 99117
08:00+5сз4681100 0.0 991128
11:00+2зсз61296100 0.5 994552
14:00+1сз61397100 5.0 994548
17:00+1сз71484100 0.7 996774
20:00+1зсз6148390 0.8 998749
30 ноября, вт
вт3023:000сз6137722 0.0 1000577
02:000зсз6137229 0.0 1003464
05:00−2зсз387910 0.0 1003211
08:00−1з4107579 0.0 1006278
11:00+2зсз612637 0.0 10071376
14:00+2сз6116586 0.0 10061534
17:00−2зсз23792 0.1 100632
20:00−1зюз4965100 0.1 1004407
1 декабря, ср
ср123:00+2зюз71655100 0.1 10011180
02:00+2зюз111954100 0.1 1000859
05:00+3з81656100 0.0 1001799
08:00+2зсз71470100 0.0 1004833
11:00+5зсз61365100 0.1 10051439
14:00+6зюз3863100 0.1 1004282
17:00+4ююз2275100 0.0 100416
20:00+4ю2276100 0.0 100325
2 декабря, чт
чт223:00+3зюз137098 0.0 100385
02:00+5юз41267100 0.0 1002691
05:00+5зюз4116493 0.0 1001331
08:00+5юз51363100 0.0 1002474
11:00+7юз51265100 0.0 10031253
14:00+8ююз4863100 0.0 1002940
17:00+5ю3380100 0.0 100230
20:00+6юв2481100 0.0 100091